Time,TemperatureF,DewpointF,PressureIn,WindDirection,WindDirectionDegrees,WindSpeedMPH,WindSpeedGustMPH,Humidity,HourlyPrecipIn,Conditions,Clouds,dailyrainin,SoftwareType,DateUTC
2013-01-25 00:00:00,26.9,5.8,30.53,ENE,68,0.0,2.0,40,0.00,,---,0.00,VWS V14.01,2013-01-25 05:00:00,
2013-01-25 00:01:00,26.9,5.8,30.53,ENE,68,1.0,2.0,40,0.00,,---,0.00,VWS V14.01,2013-01-25 05:01:00,
2013-01-25 00:02:00,26.9,5.8,30.53,NE,53,1.0,2.0,40,0.00,,---,0.00,VWS V14.01,2013-01-25 05:02:00,
2013-01-25 00:03:00,26.9,5.8,30.53,ENE,62,1.0,2.0,40,0.00,,---,0.00,VWS V14.01,2013-01-25 05:03:00,
2013-01-25 00:08:00,26.8,6.3,30.53,NE,53,2.0,3.0,41,0.00,,---,0.00,VWS V14.01,2013-01-25 05:08:00,
2013-01-25 00:13:00,26.8,6.3,30.53,NE,56,2.0,2.0,41,0.00,,---,0.00,VWS V14.01,2013-01-25 05:13:00,
2013-01-25 00:18:00,26.7,6.2,30.53,NE,53,2.0,4.0,41,0.00,,---,0.00,VWS V14.01,2013-01-25 05:18:00,
2013-01-25 00:23:00,26.6,6.1,30.53,NE,47,0.0,3.0,41,0.00,,---,0.00,VWS V14.01,2013-01-25 05:23:00,
2013-01-25 00:28:00,26.5,6.0,30.53,ENE,61,1.0,3.0,41,0.00,,---,0.00,VWS V14.01,2013-01-25 05:28:00,
2013-01-25 00:33:00,26.5,6.0,30.53,NE,51,2.0,3.0,41,0.00,,---,0.00,VWS V14.01,2013-01-25 05:33:00,
2013-01-25 00:38:00,26.3,6.3,30.52,NE,50,1.0,6.0,42,0.00,,---,0.00,VWS V14.01,2013-01-25 05:38:00,
2013-01-25 00:43:00,26.3,5.8,30.53,ENE,60,1.0,4.0,41,0.00,,---,0.00,VWS V14.01,2013-01-25 05:43:00,
2013-01-25 00:48:00,26.2,6.2,30.53,NE,43,2.0,2.0,42,0.00,,---,0.00,VWS V14.01,2013-01-25 05:48:00,
2013-01-25 00:53:00,26.2,6.2,30.53,NE,50,2.0,3.0,42,0.00,,---,0.00,VWS V14.01,2013-01-25 05:53:00,
2013-01-25 00:58:00,26.2,6.2,30.53,NE,54,2.0,3.0,42,0.00,,---,0.00,VWS V14.01,2013-01-25 05:58:00,
2013-01-25 01:03:00,26.1,6.2,30.53,NE,52,1.0,3.0,42,0.00,,---,0.00,VWS V14.01,2013-01-25 06:03:00,
2013-01-25 01:08:00,26.1,5.6,30.53,ENE,57,1.0,4.0,41,0.00,,---,0.00,VWS V14.01,2013-01-25 06:08:00,
2013-01-25 01:13:00,26.0,6.1,30.53,NE,50,1.0,2.0,42,0.00,,---,0.00,VWS V14.01,2013-01-25 06:13:00,
2013-01-25 01:18:00,25.9,6.0,30.53,ENE,62,0.0,2.0,42,0.00,,---,0.00,VWS V14.01,2013-01-25 06:18:00,
2013-01-25 01:23:00,25.9,6.0,30.54,NE,49,2.0,3.0,42,0.00,,---,0.00,VWS V14.01,2013-01-25 06:23:00,
2013-01-25 01:28:00,25.8,5.9,30.53,ENE,60,1.0,1.0,42,0.00,,---,0.00,VWS V14.01,2013-01-25 06:28:00,
2013-01-25 01:33:00,25.7,5.8,30.53,NE,53,1.0,3.0,42,0.00,,---,0.00,VWS V14.01,2013-01-25 06:33:00,
2013-01-25 01:38:00,25.6,6.2,30.53,ENE,58,0.0,2.0,43,0.00,,---,0.00,VWS V14.01,2013-01-25 06:38:00,
2013-01-25 01:43:00,25.5,5.6,30.54,ENE,60,1.0,2.0,42,0.00,,---,0.00,VWS V14.01,2013-01-25 06:43:00,
2013-01-25 01:48:00,25.4,6.0,30.53,NE,43,0.0,1.0,43,0.00,,---,0.00,VWS V14.01,2013-01-25 06:48:00,
2013-01-25 01:53:00,25.3,5.9,30.53,NE,54,0.0,2.0,43,0.00,,---,0.00,VWS V14.01,2013-01-25 06:53:00,
2013-01-25 01:58:00,25.3,5.9,30.53,ENE,62,0.0,2.0,43,0.00,,---,0.00,VWS V14.01,2013-01-25 06:58:00,
2013-01-25 02:03:00,25.2,7.3,30.53,ENE,77,0.0,1.0,46,0.00,,---,0.00,VWS V14.01,2013-01-25 07:03:00,
2013-01-25 02:08:00,25.1,5.8,30.55,NE,47,0.0,1.0,43,0.00,,---,0.00,VWS V14.01,2013-01-25 07:08:00,
2013-01-25 02:13:00,25.1,6.3,30.55,NE,51,0.0,1.0,44,0.00,,---,0.00,VWS V14.01,2013-01-25 07:13:00,
2013-01-25 02:18:00,25.0,6.2,30.54,North,1,0.0,1.0,44,0.00,,---,0.00,VWS V14.01,2013-01-25 07:18:00,
2013-01-25 02:23:00,24.8,6.0,30.54,ENE,60,1.0,1.0,44,0.00,,---,0.00,VWS V14.01,2013-01-25 07:23:00,
2013-01-25 02:28:00,24.8,6.5,30.55,NE,49,0.0,2.0,45,0.00,,---,0.00,VWS V14.01,2013-01-25 07:28:00,
2013-01-25 02:33:00,24.7,5.9,30.55,NE,47,0.0,1.0,44,0.00,,---,0.00,VWS V14.01,2013-01-25 07:33:00,
2013-01-25 02:38:00,24.7,6.4,30.55,NE,44,1.0,1.0,45,0.00,,---,0.00,VWS V14.01,2013-01-25 07:38:00,
2013-01-25 02:43:00,24.6,6.8,30.55,ENE,61,0.0,2.0,46,0.00,,---,0.00,VWS V14.01,2013-01-25 07:43:00,
2013-01-25 02:48:00,24.5,8.1,30.55,ENE,61,0.0,0.0,49,0.00,,---,0.00,VWS V14.01,2013-01-25 07:48:00,
2013-01-25 02:53:00,24.3,7.9,30.55,ENE,61,0.0,1.0,49,0.00,,---,0.00,VWS V14.01,2013-01-25 07:53:00,
2013-01-25 02:58:00,24.1,6.8,30.54,ENE,61,1.0,1.0,47,0.00,,---,0.00,VWS V14.01,2013-01-25 07:58:00,
2013-01-25 03:03:00,24.2,6.4,30.54,ENE,63,0.0,1.0,46,0.00,,---,0.00,VWS V14.01,2013-01-25 08:03:00,
2013-01-25 03:08:00,24.2,6.9,30.54,ENE,68,0.0,2.0,47,0.00,,---,0.00,VWS V14.01,2013-01-25 08:08:00,
2013-01-25 03:13:00,24.0,6.7,30.55,ENE,68,0.0,1.0,47,0.00,,---,0.00,VWS V14.01,2013-01-25 08:13:00,
2013-01-25 03:19:00,24.0,6.7,30.54,East,83,1.0,2.0,47,0.00,,---,0.00,VWS V14.01,2013-01-25 08:19:00,
2013-01-25 03:24:00,24.0,6.7,30.54,ENE,68,1.0,2.0,47,0.00,,---,0.00,VWS V14.01,2013-01-25 08:24:00,
2013-01-25 03:29:00,24.0,7.2,30.54,East,84,1.0,2.0,48,0.00,,---,0.00,VWS V14.01,2013-01-25 08:29:00,
2013-01-25 03:34:00,23.9,7.1,30.53,East,88,0.0,2.0,48,0.00,,---,0.00,VWS V14.01,2013-01-25 08:34:00,
2013-01-25 03:39:00,24.0,6.7,30.54,East,89,0.0,2.0,47,0.00,,---,0.00,VWS V14.01,2013-01-25 08:39:00,
2013-01-25 03:44:00,24.0,6.7,30.53,ENE,75,0.0,3.0,47,0.00,,---,0.00,VWS V14.01,2013-01-25 08:44:00,
2013-01-25 03:49:00,23.9,7.1,30.53,ENE,77,1.0,2.0,48,0.00,,---,0.00,VWS V14.01,2013-01-25 08:49:00,
2013-01-25 03:54:00,24.0,7.6,30.53,East,89,3.0,4.0,49,0.00,,---,0.00,VWS V14.01,2013-01-25 08:54:00,
2013-01-25 03:59:00,23.8,7.0,30.52,East,80,0.0,1.0,48,0.00,,---,0.00,VWS V14.01,2013-01-25 08:59:00,
2013-01-25 04:04:00,23.7,7.3,30.51,East,91,2.0,4.0,49,0.00,,---,0.00,VWS V14.01,2013-01-25 09:04:00,
2013-01-25 04:09:00,23.4,7.9,30.52,NE,56,0.0,3.0,51,0.00,,---,0.00,VWS V14.01,2013-01-25 09:09:00,
2013-01-25 04:14:00,23.3,7.9,30.51,ESE,103,2.0,3.0,51,0.00,,---,0.00,VWS V14.01,2013-01-25 09:14:00,
2013-01-25 04:19:00,23.2,7.8,30.51,East,82,1.0,4.0,51,0.00,,---,0.00,VWS V14.01,2013-01-25 09:19:00,
2013-01-25 04:24:00,23.1,7.7,30.51,ENE,74,0.0,1.0,51,0.00,,---,0.00,VWS V14.01,2013-01-25 09:24:00,
2013-01-25 04:29:00,23.1,7.7,30.51,ENE,77,1.0,2.0,51,0.00,,---,0.00,VWS V14.01,2013-01-25 09:29:00,
2013-01-25 04:34:00,23.1,8.1,30.51,NE,36,0.0,1.0,52,0.00,,---,0.00,VWS V14.01,2013-01-25 09:34:00,
2013-01-25 04:39:00,23.0,8.0,30.52,ENE,58,1.0,2.0,52,0.00,,---,0.00,VWS V14.01,2013-01-25 09:39:00,
2013-01-25 04:44:00,23.1,7.7,30.52,NNE,25,0.0,1.0,51,0.00,,---,0.00,VWS V14.01,2013-01-25 09:44:00,
2013-01-25 04:49:00,23.1,8.1,30.53,NNE,32,0.0,1.0,52,0.00,,---,0.00,VWS V14.01,2013-01-25 09:49:00,
2013-01-25 04:54:00,23.1,8.5,30.52,NNW,338,0.0,1.0,53,0.00,,---,0.00,VWS V14.01,2013-01-25 09:54:00,
2013-01-25 04:59:00,23.1,8.9,30.53,NNE,19,0.0,1.0,54,0.00,,---,0.00,VWS V14.01,2013-01-25 09:59:00,
2013-01-25 05:04:00,23.1,8.9,30.53,NE,36,0.0,2.0,54,0.00,,---,0.00,VWS V14.01,2013-01-25 10:04:00,
2013-01-25 05:09:00,23.0,9.2,30.53,NE,36,0.0,1.0,55,0.00,,---,0.00,VWS V14.01,2013-01-25 10:09:00,
2013-01-25 05:14:00,22.9,10.3,30.52,NE,36,0.0,0.0,58,0.00,,---,0.00,VWS V14.01,2013-01-25 10:14:00,
2013-01-25 05:19:00,22.9,10.3,30.52,East,87,1.0,2.0,58,0.00,,---,0.00,VWS V14.01,2013-01-25 10:19:00,
2013-01-25 05:24:00,22.9,10.3,30.52,East,86,0.0,1.0,58,0.00,,---,0.00,VWS V14.01,2013-01-25 10:24:00,
2013-01-25 05:29:00,22.9,10.0,30.51,East,94,0.0,1.0,57,0.00,,---,0.00,VWS V14.01,2013-01-25 10:29:00,
2013-01-25 05:34:00,23.0,9.7,30.51,ESE,113,0.0,2.0,56,0.00,,---,0.00,VWS V14.01,2013-01-25 10:34:00,
2013-01-25 05:39:00,23.0,9.2,30.50,ENE,75,1.0,3.0,55,0.00,,---,0.00,VWS V14.01,2013-01-25 10:39:00,
2013-01-25 05:44:00,23.0,9.7,30.50,SE,131,2.0,3.0,56,0.00,,---,0.00,VWS V14.01,2013-01-25 10:44:00,
2013-01-25 05:49:00,23.0,10.1,30.50,ENE,74,1.0,3.0,57,0.00,,---,0.00,VWS V14.01,2013-01-25 10:49:00,
2013-01-25 05:54:00,23.0,10.1,30.50,ESE,103,0.0,1.0,57,0.00,,---,0.00,VWS V14.01,2013-01-25 10:54:00,
2013-01-25 05:59:00,23.0,10.1,30.51,ENE,68,1.0,3.0,57,0.00,,---,0.00,VWS V14.01,2013-01-25 10:59:00,
2013-01-25 06:04:00,23.1,10.1,30.50,East,97,0.0,2.0,57,0.00,,---,0.00,VWS V14.01,2013-01-25 11:04:00,
2013-01-25 06:09:00,23.2,9.8,30.52,SE,124,0.0,1.0,56,0.00,,---,0.00,VWS V14.01,2013-01-25 11:09:00,
2013-01-25 06:15:00,23.4,10.4,30.51,NE,47,3.0,3.0,57,0.00,,---,0.00,VWS V14.01,2013-01-25 11:15:00,
2013-01-25 06:20:00,23.5,10.5,30.51,East,81,1.0,2.0,57,0.00,,---,0.00,VWS V14.01,2013-01-25 11:20:00,
2013-01-25 06:25:00,23.7,10.7,30.51,East,85,0.0,3.0,57,0.00,,---,0.00,VWS V14.01,2013-01-25 11:25:00,
2013-01-25 06:30:00,23.8,10.8,30.51,East,101,3.0,3.0,57,0.00,,---,0.00,VWS V14.01,2013-01-25 11:30:00,
2013-01-25 06:35:00,23.9,10.5,30.50,East,92,3.0,4.0,56,0.00,,---,0.00,VWS V14.01,2013-01-25 11:35:00,
2013-01-25 06:40:00,24.0,11.0,30.51,ENE,68,0.0,5.0,57,0.00,,---,0.00,VWS V14.01,2013-01-25 11:40:00,
2013-01-25 06:45:00,24.2,10.8,30.51,ESE,103,2.0,6.0,56,0.00,,---,0.00,VWS V14.01,2013-01-25 11:45:00,
2013-01-25 06:50:00,24.3,10.9,30.50,East,91,2.0,3.0,56,0.00,,---,0.00,VWS V14.01,2013-01-25 11:50:00,
2013-01-25 06:55:00,24.3,10.9,30.49,SE,132,3.0,8.0,56,0.00,,---,0.00,VWS V14.01,2013-01-25 11:55:00,
2013-01-25 07:00:00,24.4,11.0,30.49,ESE,113,1.0,6.0,56,0.00,,---,0.00,VWS V14.01,2013-01-25 12:00:00,
2013-01-25 07:05:00,24.4,10.6,30.50,ESE,108,2.0,3.0,55,0.00,,---,0.00,VWS V14.01,2013-01-25 12:05:00,
2013-01-25 07:10:00,24.5,10.7,30.50,East,101,4.0,4.0,55,0.00,,---,0.00,VWS V14.01,2013-01-25 12:10:00,
2013-01-25 07:15:00,24.6,10.8,30.51,ESE,105,1.0,3.0,55,0.00,,---,0.00,VWS V14.01,2013-01-25 12:15:00,
2013-01-25 07:20:00,24.6,10.3,30.51,SE,127,1.0,3.0,54,0.00,,---,0.00,VWS V14.01,2013-01-25 12:20:00,
2013-01-25 07:25:00,24.6,10.3,30.50,SE,133,3.0,6.0,54,0.00,,---,0.00,VWS V14.01,2013-01-25 12:25:00,
2013-01-25 07:30:00,24.7,10.9,30.50,ENE,72,0.0,3.0,55,0.00,,---,0.00,VWS V14.01,2013-01-25 12:30:00,
2013-01-25 07:35:00,24.8,10.1,30.50,ESE,120,2.0,8.0,53,0.00,,---,0.00,VWS V14.01,2013-01-25 12:35:00,
2013-01-25 07:40:00,24.8,10.5,30.50,ESE,112,6.0,7.0,54,0.00,,---,0.00,VWS V14.01,2013-01-25 12:40:00,
2013-01-25 07:45:00,24.9,9.8,30.51,ESE,103,2.0,5.0,52,0.00,,---,0.00,VWS V14.01,2013-01-25 12:45:00,
2013-01-25 07:50:00,25.0,10.3,30.50,SE,141,2.0,7.0,53,0.00,,---,0.00,VWS V14.01,2013-01-25 12:50:00,
2013-01-25 07:55:00,25.0,9.0,30.50,East,98,4.0,8.0,50,0.00,,---,0.00,VWS V14.01,2013-01-25 12:55:00,
2013-01-25 08:00:00,25.1,9.5,30.50,ENE,77,1.0,5.0,51,0.00,,---,0.00,VWS V14.01,2013-01-25 13:00:00,
2013-01-25 08:05:00,25.2,9.2,30.50,SE,124,2.0,5.0,50,0.00,,---,0.00,VWS V14.01,2013-01-25 13:05:00,
2013-01-25 08:10:00,25.2,8.3,30.50,SE,124,4.0,8.0,48,0.00,,---,0.00,VWS V14.01,2013-01-25 13:10:00,
2013-01-25 08:15:00,25.2,8.3,30.50,ESE,105,4.0,9.0,48,0.00,,---,0.00,VWS V14.01,2013-01-25 13:15:00,
2013-01-25 08:20:00,25.2,7.8,30.50,ENE,77,5.0,11.0,47,0.00,,---,0.00,VWS V14.01,2013-01-25 13:20:00,
2013-01-25 08:25:00,25.1,7.7,30.50,ESE,116,6.0,10.0,47,0.00,,---,0.00,VWS V14.01,2013-01-25 13:25:00,
2013-01-25 08:30:00,25.2,8.3,30.50,ESE,105,6.0,8.0,48,0.00,,---,0.00,VWS V14.01,2013-01-25 13:30:00,
2013-01-25 08:35:00,25.3,8.8,30.51,ENE,62,1.0,4.0,49,0.00,,---,0.00,VWS V14.01,2013-01-25 13:35:00,
2013-01-25 08:40:00,25.3,8.8,30.49,SE,137,5.0,9.0,49,0.00,,---,0.00,VWS V14.01,2013-01-25 13:40:00,
2013-01-25 08:45:00,25.1,10.0,30.50,ESE,103,4.0,9.0,52,0.00,,---,0.00,VWS V14.01,2013-01-25 13:45:00,
2013-01-25 08:50:00,24.9,10.6,30.49,East,82,8.0,8.0,54,0.00,,---,0.00,VWS V14.01,2013-01-25 13:50:00,
2013-01-25 08:55:00,24.7,10.4,30.49,SE,145,2.0,9.0,54,0.00,,---,0.00,VWS V14.01,2013-01-25 13:55:00,
2013-01-25 09:00:00,24.6,11.2,30.48,ESE,115,5.0,6.0,56,0.00,,---,0.00,VWS V14.01,2013-01-25 14:00:00,
2013-01-25 09:05:00,24.7,11.2,30.50,South,173,1.0,8.0,56,0.00,,---,0.00,VWS V14.01,2013-01-25 14:05:00,
2013-01-25 09:10:00,24.8,10.9,30.50,ENE,65,2.0,5.0,55,0.00,,---,0.00,VWS V14.01,2013-01-25 14:10:00,
2013-01-25 09:15:00,24.8,11.7,30.50,ESE,122,3.0,7.0,57,0.00,,---,0.00,VWS V14.01,2013-01-25 14:15:00,
2013-01-25 09:20:00,24.9,10.6,30.50,SE,136,3.0,7.0,54,0.00,,---,0.00,VWS V14.01,2013-01-25 14:20:00,
2013-01-25 09:25:00,25.0,10.7,30.49,ESE,116,2.0,6.0,54,0.00,,---,0.00,VWS V14.01,2013-01-25 14:25:00,
2013-01-25 09:30:00,25.0,10.3,30.50,ESE,120,0.0,8.0,53,0.00,,---,0.00,VWS V14.01,2013-01-25 14:30:00,
2013-01-25 09:35:00,25.1,10.0,30.49,ENE,70,1.0,5.0,52,0.00,,---,0.00,VWS V14.01,2013-01-25 14:35:00,
2013-01-25 09:40:00,25.1,10.0,30.50,ENE,77,0.0,4.0,52,0.00,,---,0.00,VWS V14.01,2013-01-25 14:40:00,
2013-01-25 09:45:00,25.1,9.1,30.50,ESE,107,4.0,4.0,50,0.00,,---,0.00,VWS V14.01,2013-01-25 14:45:00,
2013-01-25 09:50:00,25.2,9.6,30.50,SE,135,2.0,5.0,51,0.00,,---,0.00,VWS V14.01,2013-01-25 14:50:00,
2013-01-25 09:55:00,25.2,9.2,30.50,East,82,1.0,5.0,50,0.00,,---,0.00,VWS V14.01,2013-01-25 14:55:00,
2013-01-25 10:00:00,25.3,10.6,30.49,East,81,3.0,6.0,53,0.00,,---,0.00,VWS V14.01,2013-01-25 15:00:00,
2013-01-25 10:05:00,25.4,10.2,30.49,ESE,120,3.0,4.0,52,0.00,,---,0.00,VWS V14.01,2013-01-25 15:05:00,
2013-01-25 10:11:00,25.4,10.2,30.48,ENE,70,2.0,5.0,52,0.00,,---,0.00,VWS V14.01,2013-01-25 15:11:00,
2013-01-25 10:16:00,25.3,9.7,30.48,East,86,4.0,7.0,51,0.00,,---,0.00,VWS V14.01,2013-01-25 15:16:00,
2013-01-25 10:21:00,25.3,10.1,30.48,SE,130,2.0,5.0,52,0.00,,---,0.00,VWS V14.01,2013-01-25 15:21:00,
2013-01-25 10:26:00,25.4,11.5,30.48,NE,34,0.0,3.0,55,0.00,,---,0.00,VWS V14.01,2013-01-25 15:26:00,
2013-01-25 10:31:00,25.5,11.6,30.47,ESE,108,1.0,4.0,55,0.00,,---,0.00,VWS V14.01,2013-01-25 15:31:00,
2013-01-25 10:36:00,25.3,11.0,30.48,East,87,0.0,4.0,54,0.00,,---,0.00,VWS V14.01,2013-01-25 15:36:00,
2013-01-25 10:41:00,25.3,10.6,30.48,SE,137,0.0,2.0,53,0.00,,---,0.00,VWS V14.01,2013-01-25 15:41:00,
2013-01-25 10:46:00,25.4,11.5,30.48,East,87,1.0,4.0,55,0.00,,---,0.00,VWS V14.01,2013-01-25 15:46:00,
2013-01-25 10:51:00,25.4,10.7,30.47,East,85,4.0,4.0,53,0.00,,---,0.00,VWS V14.01,2013-01-25 15:51:00,
2013-01-25 10:56:00,25.4,10.2,30.47,ENE,69,2.0,4.0,52,0.00,,---,0.00,VWS V14.01,2013-01-25 15:56:00,
2013-01-25 11:01:00,25.5,10.3,30.46,East,101,1.0,4.0,52,0.00,,---,0.00,VWS V14.01,2013-01-25 16:01:00,
2013-01-25 11:06:00,25.6,10.9,30.46,ENE,77,3.0,3.0,53,0.00,,---,0.00,VWS V14.01,2013-01-25 16:06:00,
2013-01-25 11:11:00,25.4,10.2,30.46,ENE,58,3.0,3.0,52,0.00,,---,0.00,VWS V14.01,2013-01-25 16:11:00,
2013-01-25 11:16:00,25.4,11.5,30.45,ENE,78,0.0,0.0,55,0.00,,---,0.00,VWS V14.01,2013-01-25 16:16:00,
2013-01-25 11:21:00,25.4,11.9,30.45,ENE,57,0.0,0.0,56,0.00,,---,0.00,VWS V14.01,2013-01-25 16:21:00,
2013-01-25 11:26:00,25.4,12.7,30.44,ENE,70,0.0,0.0,58,0.00,,---,0.00,VWS V14.01,2013-01-25 16:26:00,
2013-01-25 11:31:00,25.3,13.0,30.43,ENE,68,2.0,3.0,59,0.00,,---,0.00,VWS V14.01,2013-01-25 16:31:00,
2013-01-25 11:36:00,25.2,14.0,30.42,NE,53,0.0,0.0,62,0.00,,---,0.00,VWS V14.01,2013-01-25 16:36:00,
2013-01-25 11:41:00,25.2,13.6,30.42,ESE,110,1.0,1.0,61,0.00,,---,0.00,VWS V14.01,2013-01-25 16:41:00,
2013-01-25 11:46:00,25.3,14.5,30.42,ENE,78,0.0,0.0,63,0.00,,---,0.00,VWS V14.01,2013-01-25 16:46:00,
2013-01-25 11:51:00,25.4,13.5,30.42,NE,54,2.0,4.0,60,0.00,,---,0.00,VWS V14.01,2013-01-25 16:51:00,
2013-01-25 11:56:00,25.4,13.8,30.42,NNE,32,0.0,1.0,61,0.00,,---,0.00,VWS V14.01,2013-01-25 16:56:00,
2013-01-25 12:01:00,25.3,14.1,30.42,NNE,13,2.0,2.0,62,0.00,,---,0.00,VWS V14.01,2013-01-25 17:01:00,
2013-01-25 12:06:00,25.3,14.5,30.41,NE,54,0.0,0.0,63,0.00,,---,0.00,VWS V14.01,2013-01-25 17:06:00,
2013-01-25 12:11:00,25.4,14.6,30.41,ENE,60,0.0,0.0,63,0.00,,---,0.00,VWS V14.01,2013-01-25 17:11:00,
2013-01-25 12:16:00,25.4,14.2,30.40,ENE,58,0.0,0.0,62,0.00,,---,0.00,VWS V14.01,2013-01-25 17:16:00,
2013-01-25 12:21:00,25.3,13.8,30.39,East,95,0.0,0.0,61,0.00,,---,0.00,VWS V14.01,2013-01-25 17:21:00,
2013-01-25 12:26:00,25.3,13.8,30.39,ESE,113,0.0,2.0,61,0.00,,---,0.00,VWS V14.01,2013-01-25 17:26:00,
2013-01-25 12:31:00,25.4,14.2,30.38,East,88,1.0,1.0,62,0.00,,---,0.00,VWS V14.01,2013-01-25 17:31:00,
2013-01-25 12:36:00,25.4,14.2,30.37,ESE,121,0.0,1.0,62,0.00,,---,0.00,VWS V14.01,2013-01-25 17:36:00,
2013-01-25 12:41:00,25.4,14.2,30.36,SE,143,0.0,0.0,62,0.00,,---,0.00,VWS V14.01,2013-01-25 17:41:00,
2013-01-25 12:46:00,25.3,14.5,30.36,SE,127,2.0,2.0,63,0.00,,---,0.00,VWS V14.01,2013-01-25 17:46:00,
2013-01-25 12:51:00,25.1,16.0,30.35,SE,133,0.0,0.0,68,0.00,,---,0.00,VWS V14.01,2013-01-25 17:51:00,
2013-01-25 12:56:00,25.2,16.8,30.34,ESE,120,0.0,0.0,70,0.00,,---,0.00,VWS V14.01,2013-01-25 17:56:00,
2013-01-25 13:01:00,25.1,17.0,30.34,SE,128,1.0,3.0,71,0.00,,---,0.00,VWS V14.01,2013-01-25 18:01:00,
2013-01-25 13:06:00,25.1,17.0,30.34,SE,131,0.0,0.0,71,0.00,,---,0.00,VWS V14.01,2013-01-25 18:06:00,
2013-01-25 13:11:00,25.3,17.5,30.34,ESE,113,0.0,0.0,72,0.00,,---,0.00,VWS V14.01,2013-01-25 18:11:00,
2013-01-25 13:16:00,25.4,16.7,30.33,SE,124,0.0,0.0,69,0.00,,---,0.00,VWS V14.01,2013-01-25 18:16:00,
2013-01-25 13:21:00,25.4,16.7,30.33,ESE,115,0.0,0.0,69,0.00,,---,0.00,VWS V14.01,2013-01-25 18:21:00,
2013-01-25 13:26:00,25.5,16.8,30.32,SE,127,0.0,1.0,69,0.00,,---,0.00,VWS V14.01,2013-01-25 18:26:00,
2013-01-25 13:31:00,25.4,16.7,30.32,SE,138,0.0,1.0,69,0.00,,---,0.00,VWS V14.01,2013-01-25 18:31:00,
2013-01-25 13:36:00,25.5,17.4,30.32,SE,138,0.0,0.0,71,0.00,,---,0.00,VWS V14.01,2013-01-25 18:36:00,
2013-01-25 13:41:00,25.5,16.8,30.31,SE,139,0.0,0.0,69,0.00,,---,0.00,VWS V14.01,2013-01-25 18:41:00,
2013-01-25 13:46:00,25.6,17.5,30.31,SE,139,0.0,0.0,71,0.00,,---,0.00,VWS V14.01,2013-01-25 18:46:00,
2013-01-25 13:51:00,25.5,16.8,30.32,NNW,328,3.0,3.0,69,0.00,,---,0.00,VWS V14.01,2013-01-25 18:51:00,
2013-01-25 13:56:00,25.5,18.4,30.32,NNW,332,3.0,3.0,74,0.00,,---,0.00,VWS V14.01,2013-01-25 18:56:00,
2013-01-25 14:01:00,25.4,18.0,30.31,NNW,333,0.0,1.0,73,0.00,,---,0.00,VWS V14.01,2013-01-25 19:01:00,
2013-01-25 14:06:00,25.3,17.9,30.31,NNE,13,1.0,4.0,73,0.00,,---,0.00,VWS V14.01,2013-01-25 19:06:00,
2013-01-25 14:11:00,25.1,17.4,30.31,NNE,30,0.0,0.0,72,0.00,,---,0.00,VWS V14.01,2013-01-25 19:11:00,
2013-01-25 14:16:00,25.1,18.3,30.31,North,8,0.0,1.0,75,0.00,,---,0.00,VWS V14.01,2013-01-25 19:16:00,
2013-01-25 14:21:00,25.1,18.6,30.31,North,354,0.0,1.0,76,0.00,,---,0.00,VWS V14.01,2013-01-25 19:21:00,
2013-01-25 14:26:00,25.1,18.9,30.30,NW,321,2.0,2.0,77,0.00,,---,0.00,VWS V14.01,2013-01-25 19:26:00,
2013-01-25 14:31:00,24.9,18.7,30.31,NW,323,0.0,1.0,77,0.00,,---,0.00,VWS V14.01,2013-01-25 19:31:00,
2013-01-25 14:36:00,24.7,18.5,30.31,NNW,332,4.0,5.0,77,0.00,,---,0.00,VWS V14.01,2013-01-25 19:36:00,
2013-01-25 14:41:00,24.4,18.8,30.32,NW,308,2.0,3.0,79,0.00,,---,0.00,VWS V14.01,2013-01-25 19:41:00,
2013-01-25 14:46:00,24.3,19.0,30.32,NW,321,2.0,3.0,80,0.00,,---,0.00,VWS V14.01,2013-01-25 19:46:00,
2013-01-25 14:51:00,24.3,19.9,30.32,WNW,301,0.0,0.0,83,0.00,,---,0.00,VWS V14.01,2013-01-25 19:51:00,
2013-01-25 14:57:00,24.2,20.1,30.32,NNW,341,3.0,3.0,84,0.00,,---,0.00,VWS V14.01,2013-01-25 19:57:00,
2013-01-25 15:02:00,24.1,20.0,30.32,NW,304,0.0,1.0,84,0.00,,---,0.00,VWS V14.01,2013-01-25 20:02:00,
2013-01-25 15:07:00,24.1,20.2,30.32,WNW,298,0.0,0.0,85,0.00,,---,0.00,VWS V14.01,2013-01-25 20:07:00,
2013-01-25 15:12:00,24.1,20.5,30.31,WSW,240,0.0,0.0,86,0.00,,---,0.00,VWS V14.01,2013-01-25 20:12:00,
2013-01-25 15:17:00,24.1,20.2,30.30,WSW,240,0.0,0.0,85,0.00,,---,0.00,VWS V14.01,2013-01-25 20:17:00,
2013-01-25 15:22:00,24.0,20.1,30.30,West,266,0.0,0.0,85,0.00,,---,0.00,VWS V14.01,2013-01-25 20:22:00,
2013-01-25 15:27:00,24.0,20.4,30.30,WSW,245,0.0,1.0,86,0.00,,---,0.00,VWS V14.01,2013-01-25 20:27:00,
2013-01-25 15:32:00,24.0,20.7,30.30,SSW,209,0.0,1.0,87,0.00,,---,0.00,VWS V14.01,2013-01-25 20:32:00,
2013-01-25 15:37:00,24.2,21.2,30.30,WSW,253,0.0,1.0,88,0.00,,---,0.00,VWS V14.01,2013-01-25 20:37:00,
2013-01-25 15:42:00,24.2,20.6,30.30,SW,236,1.0,2.0,86,0.00,,---,0.00,VWS V14.01,2013-01-25 20:42:00,
2013-01-25 15:47:00,24.3,21.3,30.30,WNW,300,2.0,3.0,88,0.00,,---,0.00,VWS V14.01,2013-01-25 20:47:00,
2013-01-25 15:52:00,24.3,21.3,30.29,SSW,204,0.0,0.0,88,0.00,,---,0.00,VWS V14.01,2013-01-25 20:52:00,
2013-01-25 15:57:00,24.3,21.5,30.27,South,174,3.0,4.0,89,0.00,,---,0.00,VWS V14.01,2013-01-25 20:57:00,
2013-01-25 16:02:00,24.3,21.5,30.28,West,278,0.0,2.0,89,0.00,,---,0.00,VWS V14.01,2013-01-25 21:02:00,
2013-01-25 16:07:00,24.3,21.8,30.27,SW,236,0.0,1.0,90,0.00,,---,0.00,VWS V14.01,2013-01-25 21:07:00,
2013-01-25 16:12:00,24.4,21.9,30.27,South,173,3.0,4.0,90,0.00,,---,0.00,VWS V14.01,2013-01-25 21:12:00,
2013-01-25 16:17:00,24.5,22.2,30.26,South,179,3.0,5.0,91,0.00,,---,0.00,VWS V14.01,2013-01-25 21:17:00,
2013-01-25 16:22:00,24.6,22.1,30.26,SSW,211,0.0,8.0,90,0.00,,---,0.00,VWS V14.01,2013-01-25 21:22:00,
2013-01-25 16:27:00,24.6,22.1,30.26,SSW,194,6.0,6.0,90,0.00,,---,0.00,VWS V14.01,2013-01-25 21:27:00,
2013-01-25 16:32:00,24.6,21.6,30.26,WSW,246,1.0,6.0,88,0.00,,---,0.00,VWS V14.01,2013-01-25 21:32:00,
2013-01-25 16:37:00,24.6,21.8,30.25,SSW,193,4.0,7.0,89,0.00,,---,0.00,VWS V14.01,2013-01-25 21:37:00,
2013-01-25 16:42:00,24.6,21.6,30.24,SW,214,6.0,6.0,88,0.00,,---,0.00,VWS V14.01,2013-01-25 21:42:00,
2013-01-25 16:47:00,24.6,21.6,30.25,SW,225,5.0,6.0,88,0.00,,---,0.00,VWS V14.01,2013-01-25 21:47:00,
2013-01-25 16:52:00,24.5,21.7,30.25,SSE,162,4.0,5.0,89,0.00,,---,0.00,VWS V14.01,2013-01-25 21:52:00,
2013-01-25 16:57:00,24.6,21.8,30.26,SSW,211,1.0,3.0,89,0.00,,---,0.00,VWS V14.01,2013-01-25 21:57:00,
2013-01-25 17:02:00,24.7,21.9,30.25,SW,214,2.0,5.0,89,0.00,,---,0.00,VWS V14.01,2013-01-25 22:02:00,
2013-01-25 17:07:00,24.7,21.9,30.26,SSW,211,3.0,4.0,89,0.00,,---,0.00,VWS V14.01,2013-01-25 22:07:00,
2013-01-25 17:12:00,24.7,21.9,30.26,WSW,240,2.0,5.0,89,0.00,,---,0.00,VWS V14.01,2013-01-25 22:12:00,
2013-01-25 17:17:00,24.7,21.7,30.26,WSW,240,1.0,4.0,88,0.00,,---,0.00,VWS V14.01,2013-01-25 22:17:00,
2013-01-25 17:22:00,24.7,21.7,30.25,SW,214,4.0,4.0,88,0.00,,---,0.00,VWS V14.01,2013-01-25 22:22:00,
2013-01-25 17:27:00,24.7,21.7,30.25,SW,228,3.0,6.0,88,0.00,,---,0.00,VWS V14.01,2013-01-25 22:27:00,
2013-01-25 17:32:00,24.7,21.7,30.25,SW,219,4.0,5.0,88,0.00,,---,0.00,VWS V14.01,2013-01-25 22:32:00,
2013-01-25 17:37:00,24.6,21.8,30.25,SSW,204,1.0,4.0,89,0.00,,---,0.00,VWS V14.01,2013-01-25 22:37:00,
2013-01-25 17:42:00,24.7,21.9,30.25,SW,221,0.0,2.0,89,0.00,,---,0.00,VWS V14.01,2013-01-25 22:42:00,
2013-01-25 17:47:00,24.7,21.9,30.25,SW,217,2.0,2.0,89,0.00,,---,0.00,VWS V14.01,2013-01-25 22:47:00,
2013-01-25 17:52:00,24.7,21.9,30.25,SSW,203,3.0,4.0,89,0.00,,---,0.00,VWS V14.01,2013-01-25 22:52:00,
2013-01-25 17:57:00,24.8,22.0,30.25,SW,219,0.0,4.0,89,0.00,,---,0.00,VWS V14.01,2013-01-25 22:57:00,
2013-01-25 18:02:00,24.8,22.3,30.25,SSW,198,1.0,3.0,90,0.00,,---,0.00,VWS V14.01,2013-01-25 23:02:00,
2013-01-25 18:07:00,24.8,22.3,30.25,SSW,212,1.0,3.0,90,0.00,,---,0.00,VWS V14.01,2013-01-25 23:07:00,
2013-01-25 18:12:00,24.9,22.4,30.25,South,176,2.0,5.0,90,0.00,,---,0.00,VWS V14.01,2013-01-25 23:12:00,
2013-01-25 18:17:00,24.9,22.4,30.25,SW,228,3.0,5.0,90,0.00,,---,0.00,VWS V14.01,2013-01-25 23:17:00,
2013-01-25 18:22:00,24.9,22.4,30.25,SW,215,4.0,5.0,90,0.00,,---,0.00,VWS V14.01,2013-01-25 23:22:00,
2013-01-25 18:27:00,24.9,22.4,30.25,SW,217,2.0,6.0,90,0.00,,---,0.00,VWS V14.01,2013-01-25 23:27:00,
2013-01-25 18:32:00,25.0,22.5,30.24,SW,231,4.0,5.0,90,0.00,,---,0.00,VWS V14.01,2013-01-25 23:32:00,
2013-01-25 18:37:00,25.0,22.5,30.24,SSE,155,6.0,7.0,90,0.00,,---,0.00,VWS V14.01,2013-01-25 23:37:00,
2013-01-25 18:42:00,25.1,22.6,30.24,SSW,195,4.0,6.0,90,0.00,,---,0.00,VWS V14.01,2013-01-25 23:42:00,
2013-01-25 18:47:00,25.1,22.6,30.25,SSW,203,1.0,7.0,90,0.00,,---,0.00,VWS V14.01,2013-01-25 23:47:00,
2013-01-25 18:52:00,25.2,22.7,30.24,SSW,201,5.0,10.0,90,0.00,,---,0.00,VWS V14.01,2013-01-25 23:52:00,
2013-01-25 18:57:00,25.3,22.8,30.24,SW,218,3.0,7.0,90,0.00,,---,0.00,VWS V14.01,2013-01-25 23:57:00,
2013-01-25 19:02:00,25.3,23.0,30.24,SW,232,3.0,8.0,91,0.00,,---,0.00,VWS V14.01,2013-01-26 00:02:00,
2013-01-25 19:07:00,25.4,23.1,30.24,SSW,200,2.0,5.0,91,0.00,,---,0.00,VWS V14.01,2013-01-26 00:07:00,
2013-01-25 19:12:00,25.4,23.1,30.23,SW,221,5.0,5.0,91,0.00,,---,0.00,VWS V14.01,2013-01-26 00:12:00,
2013-01-25 19:17:00,25.4,22.9,30.23,SW,214,0.0,3.0,90,0.00,,---,0.00,VWS V14.01,2013-01-26 00:17:00,
2013-01-25 19:22:00,25.4,23.1,30.23,SW,215,3.0,4.0,91,0.00,,---,0.00,VWS V14.01,2013-01-26 00:22:00,
2013-01-25 19:27:00,25.4,22.9,30.23,SW,214,4.0,5.0,90,0.00,,---,0.00,VWS V14.01,2013-01-26 00:27:00,
2013-01-25 19:32:00,25.4,22.9,30.23,SW,217,4.0,4.0,90,0.00,,---,0.00,VWS V14.01,2013-01-26 00:32:00,
2013-01-25 19:37:00,25.4,22.9,30.23,SW,231,0.0,1.0,90,0.00,,---,0.00,VWS V14.01,2013-01-26 00:37:00,
2013-01-25 19:42:00,25.4,22.9,30.23,NW,309,0.0,0.0,90,0.00,,---,0.00,VWS V14.01,2013-01-26 00:42:00,
2013-01-25 19:47:00,25.5,23.0,30.23,WNW,295,0.0,1.0,90,0.00,,---,0.00,VWS V14.01,2013-01-26 00:47:00,
2013-01-25 19:52:00,25.6,23.1,30.24,West,276,0.0,1.0,90,0.00,,---,0.00,VWS V14.01,2013-01-26 00:52:00,
2013-01-25 19:57:00,25.7,23.2,30.24,WNW,300,0.0,0.0,90,0.00,,---,0.00,VWS V14.01,2013-01-26 00:57:00,
2013-01-25 20:02:00,25.8,23.3,30.24,West,261,0.0,1.0,90,0.00,,---,0.00,VWS V14.01,2013-01-26 01:02:00,
2013-01-25 20:07:00,25.9,23.1,30.24,WSW,241,2.0,2.0,89,0.00,,---,0.00,VWS V14.01,2013-01-26 01:07:00,
2013-01-25 20:12:00,26.2,23.1,30.24,West,265,1.0,4.0,88,0.00,,---,0.00,VWS V14.01,2013-01-26 01:12:00,
2013-01-25 20:17:00,26.3,23.2,30.24,SW,228,2.0,4.0,88,0.00,,---,0.00,VWS V14.01,2013-01-26 01:17:00,
2013-01-25 20:22:00,26.4,23.3,30.23,SW,215,4.0,6.0,88,0.00,,---,0.00,VWS V14.01,2013-01-26 01:22:00,
2013-01-25 20:27:00,26.4,23.3,30.23,West,260,4.0,4.0,88,0.00,,---,0.00,VWS V14.01,2013-01-26 01:27:00,
2013-01-25 20:32:00,26.4,23.6,30.23,SSW,205,3.0,3.0,89,0.00,,---,0.00,VWS V14.01,2013-01-26 01:32:00,
2013-01-25 20:37:00,26.4,23.6,30.23,West,269,2.0,3.0,89,0.00,,---,0.00,VWS V14.01,2013-01-26 01:37:00,
2013-01-25 20:42:00,26.4,23.3,30.23,WSW,242,0.0,4.0,88,0.00,,---,0.00,VWS V14.01,2013-01-26 01:42:00,
2013-01-25 20:47:00,26.4,23.3,30.23,SW,219,0.0,1.0,88,0.00,,---,0.00,VWS V14.01,2013-01-26 01:47:00,
2013-01-25 20:52:00,26.3,23.2,30.23,West,259,0.0,0.0,88,0.00,,---,0.00,VWS V14.01,2013-01-26 01:52:00,
2013-01-25 20:57:00,26.2,23.1,30.23,WSW,250,0.0,0.0,88,0.00,,---,0.00,VWS V14.01,2013-01-26 01:57:00,
2013-01-25 21:02:00,26.2,23.1,30.23,WSW,242,1.0,1.0,88,0.00,,---,0.00,VWS V14.01,2013-01-26 02:02:00,
2013-01-25 21:07:00,26.2,23.1,30.23,SW,225,0.0,1.0,88,0.00,,---,0.00,VWS V14.01,2013-01-26 02:07:00,
2013-01-25 21:12:00,26.3,23.0,30.23,SW,236,0.0,1.0,87,0.00,,---,0.00,VWS V14.01,2013-01-26 02:12:00,
2013-01-25 21:17:00,26.3,23.0,30.23,WSW,245,0.0,2.0,87,0.00,,---,0.00,VWS V14.01,2013-01-26 02:17:00,
2013-01-25 21:22:00,26.3,23.0,30.23,WSW,245,0.0,0.0,87,0.00,,---,0.00,VWS V14.01,2013-01-26 02:22:00,
2013-01-25 21:27:00,26.2,23.1,30.23,WSW,244,0.0,0.0,88,0.00,,---,0.00,VWS V14.01,2013-01-26 02:27:00,
2013-01-25 21:32:00,26.0,22.9,30.23,WSW,245,0.0,0.0,88,0.00,,---,0.00,VWS V14.01,2013-01-26 02:32:00,
2013-01-25 21:37:00,25.8,23.0,30.23,WSW,245,0.0,1.0,89,0.00,,---,0.00,VWS V14.01,2013-01-26 02:37:00,
2013-01-25 21:42:00,25.7,22.9,30.23,WSW,245,0.0,0.0,89,0.00,,---,0.00,VWS V14.01,2013-01-26 02:42:00,
2013-01-25 21:47:00,25.5,22.7,30.23,WSW,245,0.0,0.0,89,0.00,,---,0.00,VWS V14.01,2013-01-26 02:47:00,
2013-01-25 21:52:00,25.4,22.9,30.22,WSW,245,0.0,0.0,90,0.00,,---,0.00,VWS V14.01,2013-01-26 02:52:00,
2013-01-25 21:57:00,25.3,22.8,30.23,WSW,245,0.0,0.0,90,0.00,,---,0.00,VWS V14.01,2013-01-26 02:57:00,
2013-01-25 22:02:00,25.2,22.7,30.22,WSW,245,0.0,0.0,90,0.00,,---,0.00,VWS V14.01,2013-01-26 03:02:00,
2013-01-25 22:07:00,25.3,22.8,30.23,WSW,245,0.0,0.0,90,0.00,,---,0.00,VWS V14.01,2013-01-26 03:07:00,
2013-01-25 22:12:00,25.3,22.8,30.22,WSW,245,0.0,0.0,90,0.00,,---,0.00,VWS V14.01,2013-01-26 03:12:00,
2013-01-25 22:17:00,25.3,22.8,30.23,WSW,244,0.0,0.0,90,0.00,,---,0.00,VWS V14.01,2013-01-26 03:17:00,
2013-01-25 22:22:00,25.3,22.8,30.22,WSW,245,0.0,0.0,90,0.00,,---,0.00,VWS V14.01,2013-01-26 03:22:00,
2013-01-25 22:27:00,25.3,22.8,30.22,WSW,245,0.0,0.0,90,0.00,,---,0.00,VWS V14.01,2013-01-26 03:27:00,
2013-01-25 22:32:00,25.3,22.5,30.22,WSW,245,0.0,0.0,89,0.00,,---,0.00,VWS V14.01,2013-01-26 03:32:00,
2013-01-25 22:37:00,25.3,22.5,30.22,WSW,245,0.0,0.0,89,0.00,,---,0.00,VWS V14.01,2013-01-26 03:37:00,
2013-01-25 22:42:00,25.3,22.5,30.22,WSW,245,0.0,0.0,89,0.00,,---,0.00,VWS V14.01,2013-01-26 03:42:00,
2013-01-25 22:47:00,25.3,22.5,30.22,WSW,245,0.0,0.0,89,0.00,,---,0.00,VWS V14.01,2013-01-26 03:47:00,
2013-01-25 22:52:00,25.4,22.6,30.22,WSW,245,0.0,0.0,89,0.00,,---,0.00,VWS V14.01,2013-01-26 03:52:00,
2013-01-25 22:57:00,25.5,22.7,30.22,WSW,245,0.0,0.0,89,0.00,,---,0.00,VWS V14.01,2013-01-26 03:57:00,
2013-01-25 23:02:00,25.4,22.6,30.22,WSW,245,0.0,0.0,89,0.00,,---,0.00,VWS V14.01,2013-01-26 04:02:00,
2013-01-25 23:07:00,25.4,22.6,30.22,WSW,245,0.0,0.0,89,0.00,,---,0.00,VWS V14.01,2013-01-26 04:07:00,
2013-01-25 23:12:00,25.4,22.6,30.22,WSW,245,0.0,0.0,89,0.00,,---,0.00,VWS V14.01,2013-01-26 04:12:00,
2013-01-25 23:17:00,25.3,22.5,30.22,WSW,245,0.0,0.0,89,0.00,,---,0.00,VWS V14.01,2013-01-26 04:17:00,
2013-01-25 23:22:00,25.3,22.5,30.22,WSW,245,0.0,0.0,89,0.00,,---,0.00,VWS V14.01,2013-01-26 04:22:00,
2013-01-25 23:27:00,25.4,22.6,30.22,WSW,245,0.0,0.0,89,0.00,,---,0.00,VWS V14.01,2013-01-26 04:27:00,
2013-01-25 23:33:00,25.4,22.6,30.22,WSW,245,0.0,0.0,89,0.00,,---,0.00,VWS V14.01,2013-01-26 04:33:00,
2013-01-25 23:38:00,25.3,22.5,30.22,WSW,245,0.0,0.0,89,0.00,,---,0.00,VWS V14.01,2013-01-26 04:38:00,
2013-01-25 23:43:00,25.2,22.4,30.21,WSW,245,0.0,0.0,89,0.00,,---,0.00,VWS V14.01,2013-01-26 04:43:00,
2013-01-25 23:48:00,25.2,22.7,30.21,WSW,245,0.0,0.0,90,0.00,,---,0.00,VWS V14.01,2013-01-26 04:48:00,
2013-01-25 23:53:00,25.3,22.8,30.21,SSW,200,0.0,0.0,90,0.00,,---,0.00,VWS V14.01,2013-01-26 04:53:00,
2013-01-25 23:58:00,25.4,22.9,30.21,SSW,200,0.0,0.0,90,0.00,,---,0.00,VWS V14.01,2013-01-26 04:58:00,